Tracking 20621 objects as of 30-Mar-2020
HD Live streaming from Space Station
objects crossing your sky now

RADUGA 1-4

Track RADUGA 1-4 now!
RADUGA 1-4 is classified as:


NORAD ID: 25642
Int'l Code: 1999-010A
Perigee: 35,768.0 km
Apogee: 35,804.4 km
Inclination: 14.8 °
Period: 1,435.7 minutes
Semi major axis: 42157 km
RCS: 12.5893 m2 (large)
Launch date: February 28, 1999
Source: Commonwealth of Independent States (former USSR) (CIS)
Launch site: TYURATAM MISSILE AND SPACE COMPLEX (TTMTR)

Military communication.
aabbcc
Your satellite tracking list
Your tracking list is empty




NASA's NSSDC Master Catalog

Two Line Element Set (TLE):
1 25642U 99010A   20089.98897753  .00000128  00000-0  00000+0 0  9993
2 25642  14.8480  20.9761 0004314 297.8042 262.4420  1.00298704 77202
Source of the keplerian elements: AFSPC